Theta_e
301 301 302 303 304 305 304 306 306 305 305 305 305 305 304 303 300 294 290 290 287 283 283 284 285 284 287 287 286 287 286 285 282 278 276 274 270 274 275 279 279 279 279 278 274 267 270 273 278 280 276 274 274 272
299 300 300 300 303 305 305 305 305 305 305 305 305 305 304 303 300 294 287 291 291 286 284 287 286 287 286 286 289 285 285 283 285 279 274 272 267 269 271 275 280 275 279 276 278 276 273 273 273 274 275 273 271 271
298 298 299 299 299 302 303 304 304 304 305 305 304 304 303 302 301 295 287 286 289 285 285 283 282 286 289 287 289 285 285 288 286 286 280 272 269 276 269 269 276 279 281 277 275 271 270 271 270 270 270 269 269 269
297 297 297 298 298 298 300 302 303 302 302 302 301 301 301 300 298 294 287 286 287 284 280 281 289 284 288 291 292 291 290 288 287 283 275 269 272 279 275 278 277 277 280 275 271 271 270 269 269 269 269 268 267 267
296 297 296 297 297 298 297 299 301 302 301 300 300 300 299 298 297 292 288 286 286 284 275 278 285 285 286 289 289 290 289 286 282 277 272 272 277 277 274 276 272 271 274 276 275 273 271 270 268 269 267 266 265 265
295 295 295 296 296 297 297 297 298 299 299 300 299 300 300 298 296 293 287 290 287 287 280 277 283 281 281 285 285 285 286 284 279 277 280 276 280 278 268 266 266 266 266 266 267 267 268 267 267 267 265 264 264 264
294 294 294 295 295 295 296 296 296 296 297 297 298 297 296 293 287 282 281 284 290 287 282 276 277 280 279 283 282 283 285 278 278 274 272 276 278 275 264 265 264 264 264 264 265 267 265 267 263 264 264 263 263 264
293 294 294 294 294 294 295 295 294 294 296 296 295 294 294 293 289 281 284 284 287 283 280 276 275 277 277 278 278 280 279 279 277 274 274 272 274 268 266 264 264 263 263 262 262 263 263 263 262 261 262 262 261 261
292 293 293 293 293 293 294 294 294 293 293 295 294 291 283 279 278 279 289 284 277 278 269 266 269 271 274 275 277 278 276 273 272 270 269 271 266 267 264 265 264 263 263 262 261 260 260 259 259 258 258 257 258 258
291 292 292 293 292 293 293 293 293 291 293 293 281 276 272 273 287 283 274 273 269 265 265 261 262 265 270 272 270 271 271 270 265 264 266 260 260 260 261 262 264 263 263 262 259 256 255 253 256 256 256 256 256 256
291 291 291 292 292 292 292 292 292 287 285 273 268 269 275 282 274 266 264 264 260 260 258 257 259 260 268 265 264 271 268 266 264 263 264 256 261 262 259 259 260 261 259 257 257 257 256 255 254 253 251 250 251 250
291 290 290 291 291 291 291 290 290 276 267 271 272 271 269 266 265 266 254 258 258 256 254 255 258 261 261 267 262 265 261 263 261 257 260 258 262 256 256 254 254 255 255 252 251 254 254 255 253 252 251 250 250 250
291 290 290 290 291 290 290 289 287 286 280 269 266 262 265 259 262 259 253 257 255 251 253 252 257 259 261 264 259 259 259 257 258 258 258 261 257 253 251 250 248 245 246 248 246 245 247 248 247 248 249 248 248 248
290 289 289 289 290 290 289 287 284 279 269 262 261 260 257 255 251 249 251 251 254 255 251 253 251 257 254 260 257 257 257 258 253 254 257 258 255 255 249 246 249 248 246 248 249 246 248 248 248 247 248 248 248 248
289 288 287 287 289 288 287 283 280 264 263 258 260 255 253 250 247 245 243 247 250 249 251 252 252 262 253 256 257 255 256 253 256 258 257 256 250 253 249 245 247 249 248 249 248 250 251 251 250 249 247 246 246 247
288 282 280 288 288 286 284 271 264 260 255 257 254 253 247 249 249 245 243 247 248 253 251 251 250 254 252 251 255 254 255 255 259 255 255 251 252 251 249 250 252 252 251 252 251 250 249 248 249 250 248 248 249 247
283 268 285 287 287 280 279 263 261 254 254 254 252 241 248 246 252 248 246 249 253 250 253 248 255 255 255 252 253 252 256 258 257 254 248 250 253 252 249 248 247 247 247 247 246 247 251 251 248 249 249 248 249 249
266 273 285 285 277 269 259 257 256 256 252 248 255 250 244 245 245 244 243 247 250 248 248 254 255 251 252 253 254 256 255 250 246 248 250 248 247 247 250 251 249 249 249 250 254 253 250 251 251 251 247 246 247 248
275 277 283 282 274 261 260 259 257 254 249 245 246 247 245 244 245 245 242 245 246 247 250 248 250 251 255 253 256 251 246 250 253 252 250 247 250 250 250 248 250 252 256 255 253 253 251 251 251 250 249 248 249 248
281 280 281 277 273 263 260 257 255 256 252 252 247 247 247 247 244 240 241 244 246 245 250 250 255 256 256 256 256 256 254 254 252 249 250 251 250 249 252 255 257 257 255 250 247 249 246 247 246 247 247 247 247 248
273 271 275 266 259 257 255 251 253 250 249 251 245 249 247 244 244 244 245 244 248 250 253 255 252 250 244 244 245 247 251 255 256 257 255 252 254 255 252 253 255 250 251 250 251 249 250 250 249 250 248 247 247 247
264 275 262 266 261 255 254 250 253 251 253 247 250 247 248 249 247 245 243 246 250 254 253 251 249 246 246 250 249 246 248 249 246 249 251 254 252 253 252 254 252 251 250 251 250 251 251 248 245 245 246 246 246 245
271 268 262 259 261 258 253 251 253 251 256 253 249 253 252 250 247 247 248 249 252 252 246 245 244 240 244 241 240 242 241 249 251 250 248 250 246 246 248 251 253 252 250 250 246 248 248 248 248 248 246 246 245 245
268 260 261 257 259 254 249 251 252 251 253 252 253 254 252 250 248 250 253 255 256 249 246 245 241 245 244 244 245 248 250 246 246 245 243 248 249 249 247 249 249 251 251 244 247 248 247 246 248 248 246 244 241 242
266 264 261 258 253 255 253 252 252 253 256 251 252 252 250 246 253 252 255 259 256 256 252 247 246 247 253 247 247 246 244 250 252 254 250 251 247 245 244 241 243 246 245 245 244 243 242 243 246 246 245 243 244 242
264 258 259 259 254 258 256 255 254 258 255 252 250 246 245 250 253 258 259 259 258 258 254 252 252 247 248 250 250 248 250 248 247 251 251 251 254 255 255 252 251 252 249 252 249 248 247 246 245 245 245 245 245 241
261 263 255 250 253 253 254 252 253 258 258 257 253 251 253 255 257 261 259 257 258 254 251 250 253 254 254 250 251 251 245 249 251 251 247 249 254 256 257 255 254 255 252 252 252 250 251 249 248 248 248 242 244 245
261 260 262 257 256 256 258 256 256 259 260 257 256 255 257 259 263 264 260 254 249 247 245 244 245 248 248 249 248 245 244 243 245 246 246 246 247 251 252 252 251 257 253 253 253 253 252 252 251 250 249 249 248 246
259 258 259 257 257 256 258 260 261 260 259 259 259 259 260 262 261 259 254 248 243 247 249 248 249 242 243 243 243 242 243 248 249 249 248 251 249 252 251 253 254 254 253 253 257 254 253 253 252 251 250 250 250 249
255 252 255 255 257 259 258 254 253 251 252 252 251 253 254 256 258 255 247 244 247 249 247 246 243 245 246 245 244 244 242 246 250 252 250 249 251 249 249 253 255 255 254 254 255 256 261 257 258 250 250 249 249 249
249 251 254 255 256 253 249 248 249 250 250 251 250 251 252 250 251 251 247 244 243 241 244 245 243 240 242 242 241 242 246 245 247 248 246 246 246 246 249 252 254 254 254 254 255 255 255 254 254 252 251 250 250 250
250 251 253 254 253 249 248 250 251 251 251 252 252 249 251 250 252 252 246 243 242 244 245 243 243 246 244 242 240 241 247 244 244 247 247 250 250 248 249 251 253 254 253 254 254 254 254 254 253 252 252 251 251 250
250 251 251 251 252 253 252 252 252 251 249 250 252 251 251 249 252 252 246 245 247 247 246 245 244 241 242 243 243 243 245 243 245 254 256 255 254 254 252 253 254 254 254 254 254 254 253 253 252 251 251 251 251 250
Wind_Speed
37 37 37 37 36 30 30 31 30 28 26 22 19 21 9 11 10 5 2 3 5 4 6 8 5 4 5 2 9 7 6 1 3 5 4 3 5 5 4 5 7 7 7 4 3 2 9 8 2 5 6 7 9 9
35 34 33 34 32 31 26 21 21 19 16 14 15 14 15 12 13 6 5 2 5 7 3 2 9 10 6 3 3 3 2 3 5 6 2 5 3 3 6 7 2 2 7 7 5 5 5 8 10 7 6 7 5 5
34 34 32 31 30 28 26 24 24 20 17 15 13 12 17 16 20 11 3 3 4 4 4 6 6 8 8 5 4 4 2 4 3 3 5 3 5 4 5 5 5 2 3 5 5 5 7 8 8 8 9 9 7 6
31 31 31 30 28 26 24 21 21 18 17 14 14 13 18 18 17 11 5 4 2 4 5 2 3 5 12 10 4 2 6 8 6 3 3 4 5 3 3 4 4 2 6 8 5 6 7 3 6 7 8 7 5 5
32 31 30 30 29 24 22 22 16 17 17 16 18 18 19 19 15 12 4 3 2 3 5 1 3 7 11 11 18 15 7 5 3 4 4 2 2 4 2 3 1 2 5 7 5 14 3 7 10 7 7 5 4 3
31 31 31 30 28 26 22 17 18 15 11 9 10 13 16 10 9 3 4 4 7 3 6 4 1 6 10 11 14 11 5 3 4 4 2 1 2 2 4 3 2 3 4 4 6 7 12 16 11 7 7 5 4 4
30 30 30 30 29 27 25 19 11 11 11 8 6 7 9 10 6 5 1 6 15 2 5 3 2 5 6 5 4 4 6 4 3 2 3 1 2 4 4 3 5 5 5 6 7 11 9 7 6 6 6 5 4 5
28 30 30 29 29 28 27 24 15 5 10 16 15 16 20 19 13 5 6 11 3 5 5 4 2 4 10 5 3 4 3 4 7 2 2 3 2 2 0 3 10 8 8 7 7 7 8 12 9 7 6 5 5 6
25 26 29 29 29 28 27 27 21 8 5 9 8 7 4 7 5 2 12 10 8 6 6 5 3 1 8 4 3 3 3 4 2 3 3 2 3 3 1 9 12 9 5 12 8 9 8 10 9 6 5 4 5 4
22 24 25 27 28 29 29 28 25 13 3 9 5 5 5 3 9 6 9 6 9 8 8 5 2 2 4 4 3 2 2 2 2 3 2 4 4 2 3 4 8 8 10 11 8 5 4 4 5 5 4 3 3 2
21 21 23 26 25 27 28 29 28 9 8 6 4 1 4 8 5 6 5 8 5 7 6 2 2 2 5 3 0 3 1 2 3 4 2 3 4 2 4 7 6 8 8 6 6 6 6 8 7 6 4 3 3 2
22 19 20 24 24 24 25 25 24 8 3 4 4 2 4 8 6 10 2 5 8 0 4 1 3 1 4 2 3 5 3 4 1 2 4 4 3 2 5 4 4 5 7 6 3 7 6 6 6 5 5 4 4 3
21 18 19 22 25 24 23 20 17 5 4 4 8 9 7 7 13 8 4 5 4 4 4 5 3 2 4 3 4 4 7 1 1 5 4 5 1 3 4 4 3 1 4 6 3 2 3 3 3 5 5 4 4 3
22 17 17 20 27 24 23 18 15 4 7 8 7 9 6 6 1 4 4 4 4 1 2 1 3 2 2 5 1 7 3 3 5 3 6 4 6 7 5 3 5 6 5 6 7 5 5 6 5 3 3 3 4 2
22 15 14 17 26 23 22 14 15 7 7 6 6 4 3 3 2 3 2 2 3 1 2 3 3 1 4 5 3 4 5 3 5 6 5 4 4 8 6 5 5 6 6 5 3 4 5 5 5 3 3 2 3 2
21 7 8 26 25 20 20 8 8 5 7 6 7 6 2 4 4 3 1 3 2 1 2 3 1 5 3 4 4 5 5 6 5 4 4 2 5 5 6 6 7 6 6 6 5 4 4 5 5 4 0 2 2 3
11 3 21 23 23 11 19 6 6 10 7 6 2 1 3 2 4 3 3 3 1 4 1 3 4 6 1 4 2 5 7 5 5 4 3 6 8 9 6 5 5 6 7 6 4 5 5 4 4 3 3 4 3 3
0 5 18 21 14 6 6 7 7 6 7 1 3 3 1 1 3 2 3 1 3 2 3 3 4 3 5 5 5 6 5 3 3 3 3 3 4 5 6 8 6 6 5 5 5 4 4 5 5 5 5 4 2 1
7 6 14 16 7 6 5 6 5 6 2 2 0 1 3 1 1 1 1 2 1 1 4 3 4 4 6 5 6 4 3 4 4 4 3 3 4 7 6 4 5 6 7 5 6 5 4 6 4 4 4 4 3 3
8 7 12 10 7 5 6 4 3 6 3 3 3 2 3 2 1 2 1 3 2 3 3 3 8 6 6 5 5 4 4 5 5 2 3 3 3 5 7 8 7 6 4 3 2 3 2 2 2 3 3 4 3 3
7 5 8 6 5 8 6 1 4 2 3 3 1 2 1 2 3 1 1 1 3 5 5 6 5 4 2 3 2 1 3 6 6 5 5 3 5 6 3 3 3 3 4 4 5 5 6 6 4 4 5 3 3 3
3 7 3 4 6 5 6 2 4 1 4 2 2 1 2 0 2 2 2 2 6 6 6 5 4 3 2 3 4 4 3 4 3 3 3 5 4 4 4 6 6 6 6 6 5 6 6 4 3 3 4 3 3 2
4 3 4 4 6 6 2 1 4 4 3 3 2 2 1 1 1 1 3 5 6 4 2 3 3 1 3 3 2 4 3 5 4 4 3 3 2 2 3 5 7 7 5 6 4 4 4 4 5 5 3 3 2 2
5 5 3 2 3 3 2 3 2 3 2 2 3 2 2 2 1 0 5 5 5 1 2 4 3 1 3 2 3 4 5 4 2 1 3 4 4 4 5 4 5 5 5 3 4 4 4 4 5 4 4 3 3 3
3 3 2 2 2 5 3 2 1 2 3 3 3 2 2 2 1 3 5 5 3 3 3 3 3 3 4 3 3 4 4 6 6 7 4 6 3 2 1 2 4 5 4 4 3 4 3 3 4 5 5 5 6 6
4 2 3 5 1 5 6 5 6 6 4 3 4 1 1 2 2 7 5 4 4 4 5 6 6 3 4 6 4 2 4 6 4 4 4 7 9 7 6 5 4 5 9 8 5 7 6 5 5 8 6 7 6 5
5 5 2 0 1 4 3 2 2 2 5 6 5 5 3 3 7 7 3 3 3 3 3 3 5 5 4 3 3 3 3 6 6 3 1 3 6 7 7 6 7 5 7 11 9 8 9 9 8 8 7 3 6 6
3 3 4 4 2 1 4 3 5 7 5 3 6 6 8 9 6 3 3 1 1 2 2 1 2 2 3 3 2 2 1 1 1 2 3 3 4 4 5 3 2 5 4 6 7 7 7 7 8 7 7 7 5 6
2 2 3 4 2 3 5 7 5 3 2 5 5 5 5 4 2 1 1 1 1 3 1 1 3 1 2 2 1 1 3 4 6 5 6 5 3 4 7 6 6 4 4 5 8 7 8 7 6 6 7 5 3 3
3 1 3 3 5 6 2 1 0 1 2 1 2 3 3 4 2 1 2 2 2 4 3 2 1 2 2 2 2 4 3 4 5 5 4 4 5 3 3 6 7 6 5 5 6 6 10 7 8 4 4 3 3 3
0 1 1 1 3 2 2 1 0 1 1 1 1 2 4 6 6 2 2 2 2 2 2 2 3 3 3 2 3 1 4 3 6 7 4 3 2 2 1 2 4 5 6 6 6 6 6 6 5 5 6 6 6 6
1 3 2 2 2 1 1 0 1 1 1 1 1 1 3 3 5 4 3 4 3 1 5 3 2 4 4 3 2 3 4 3 3 4 7 6 5 3 2 2 3 5 6 6 6 6 6 7 6 6 6 7 7 7
1 1 1 0 1 2 2 2 0 2 0 2 2 1 1 2 7 5 2 4 4 4 4 4 3 2 4 5 4 3 4 4 6 8 6 8 6 6 4 3 4 5 6 6 6 6 7 7 6 6 6 6 6 6
Wind_Direction
21 24 28 30 32 57 55 61 81 97 104 104 100 92 99 71 110 134 164 338 106 97 21 11 39 65 108 147 155 179 92 15 44 73 106 166 118 209 95 170 172 155 153 165 115 123 269 15 298 194 116 85 104 100
25 25 29 32 36 38 50 71 74 77 87 91 83 84 65 48 75 87 65 2 55 77 125 328 88 58 31 323 122 345 99 130 142 103 93 100 112 138 151 179 170 202 179 176 183 194 68 23 92 62 74 117 106 101
24 28 30 31 37 40 41 51 55 55 59 63 69 70 70 63 58 81 99 356 51 99 82 36 356 339 0 344 261 113 359 105 80 80 134 154 125 130 148 232 101 244 155 110 139 162 131 109 83 71 70 86 78 58
23 27 29 33 34 37 43 48 56 59 62 66 70 74 75 73 61 73 62 328 42 97 90 5 319 16 319 334 61 1 124 67 81 68 112 121 120 189 196 153 139 186 137 121 87 117 110 127 118 124 106 87 73 48
15 21 27 30 32 38 36 41 55 60 71 77 80 74 76 76 67 78 96 51 7 125 130 70 315 357 346 11 46 38 54 88 60 49 49 82 124 103 337 68 177 194 156 169 195 155 109 123 139 134 121 99 71 41
16 16 19 23 29 33 36 40 39 52 64 43 33 32 41 22 22 32 33 6 8 356 94 77 246 355 346 5 42 40 40 92 74 107 95 45 278 114 102 176 67 63 55 8 133 81 89 118 115 105 113 97 74 77
13 15 15 16 19 23 26 32 52 59 61 88 81 52 51 91 66 66 112 292 321 329 85 99 37 20 343 359 31 4 27 51 82 85 52 98 26 52 91 178 141 113 87 62 66 111 99 147 124 103 100 84 85 81
12 11 11 12 13 14 15 18 20 72 106 100 98 91 93 95 117 40 2 4 322 78 58 93 28 32 9 12 35 355 36 15 26 76 29 28 2 42 303 135 137 127 113 87 67 49 87 110 104 89 76 68 81 68
12 12 8 7 7 8 9 8 12 13 155 151 128 107 35 29 46 288 344 33 37 64 104 60 44 79 343 12 2 20 45 63 355 63 28 340 343 223 260 158 162 163 170 142 107 96 94 103 106 89 84 57 83 54
7 8 10 8 6 3 1 3 6 5 69 109 59 48 11 304 314 16 9 20 20 5 30 80 322 350 335 358 15 39 19 69 73 281 326 63 263 300 4 72 116 127 124 131 119 121 109 100 126 132 137 155 156 173
4 5 6 7 7 5 2 358 355 20 60 38 45 110 241 327 51 31 40 46 338 39 14 321 41 346 341 48 287 7 148 19 78 284 100 328 289 191 106 84 78 94 98 86 93 88 106 131 158 162 178 183 165 119
359 2 6 6 5 6 5 3 357 38 127 166 151 54 22 30 25 70 12 347 43 82 325 62 307 324 294 0 90 344 104 30 202 311 64 296 251 99 129 115 84 99 114 115 114 131 137 153 170 169 171 171 164 166
354 353 356 3 4 2 4 7 8 53 86 32 42 45 27 319 44 56 347 340 25 329 334 344 338 344 335 28 57 55 65 225 1 38 237 238 256 144 153 140 127 41 114 122 109 106 143 177 184 177 183 211 162 140
350 351 350 357 359 360 359 7 15 60 66 65 57 24 66 349 21 180 181 197 249 200 319 267 281 59 286 41 133 79 254 63 41 21 243 256 209 179 173 177 128 190 186 171 174 173 179 178 191 207 191 164 132 130
344 347 357 354 354 355 356 11 27 46 67 71 57 61 57 232 251 231 215 345 262 209 49 13 346 11 354 68 33 91 34 294 201 230 239 263 214 159 177 182 185 173 179 188 178 178 186 179 168 175 214 170 147 147
340 350 355 347 351 356 356 29 33 71 54 70 61 90 334 55 303 335 197 243 233 345 45 57 104 52 353 124 61 212 120 221 252 223 233 171 166 174 180 186 190 175 177 179 178 183 172 175 172 187 141 175 191 194
353 17 338 342 348 0 13 65 50 45 98 61 10 20 123 110 175 206 150 233 335 69 144 111 62 215 46 39 303 196 201 216 216 251 221 203 187 192 188 172 170 174 184 185 180 186 186 161 134 118 167 222 226 230
52 295 336 346 357 28 27 38 78 72 61 301 98 233 174 89 126 302 258 313 77 111 104 192 123 89 183 178 262 237 230 245 222 226 233 200 199 185 177 180 180 181 184 192 197 175 164 170 184 204 187 201 208 216
286 301 335 354 24 79 64 12 50 100 192 191 176 63 104 146 224 93 89 338 121 152 100 42 88 202 226 212 211 241 240 203 207 220 235 235 190 177 182 170 172 190 197 180 183 198 201 199 202 183 184 159 188 209
325 339 348 24 33 75 54 0 57 93 146 198 73 82 106 135 193 70 37 17 68 78 46 197 215 214 193 222 197 191 181 153 130 72 291 258 199 161 190 187 198 189 173 144 182 170 168 247 240 194 176 177 167 231
354 331 4 50 44 61 82 25 46 130 143 98 233 103 105 18 39 52 196 309 57 215 240 220 230 247 235 250 248 165 162 158 187 175 187 182 187 185 170 173 156 142 170 187 199 215 201 215 206 182 177 194 210 222
264 351 52 17 77 41 75 338 120 174 74 170 86 72 105 139 226 254 200 72 233 237 205 191 224 207 221 242 224 203 221 150 119 113 74 113 127 167 202 193 169 203 203 207 194 207 216 207 175 162 166 211 195 213
354 30 43 47 72 48 270 86 75 352 114 206 47 60 261 222 220 184 254 223 255 233 206 206 232 202 225 304 307 269 204 164 193 200 190 191 193 173 148 177 188 185 209 234 191 198 210 192 185 176 161 154 168 220
25 54 85 88 75 178 23 26 43 81 72 107 133 215 225 180 147 167 255 249 241 154 205 212 151 19 335 348 249 229 197 167 164 289 194 155 207 239 204 201 194 207 197 163 171 188 184 192 168 159 165 170 192 203
67 278 112 227 17 97 100 101 48 102 182 175 133 257 217 165 135 241 244 263 235 222 202 170 184 222 218 258 283 256 211 171 185 216 198 193 136 68 313 245 239 230 158 144 183 173 193 159 171 176 183 188 203 220
231 263 162 197 242 158 178 154 198 189 149 150 216 139 113 122 142 240 232 225 222 194 184 190 183 168 249 214 244 260 243 181 126 204 227 186 194 198 209 193 217 257 189 199 153 185 186 182 180 188 206 212 207 196
240 224 138 107 61 113 76 44 59 165 173 180 171 158 134 200 238 245 263 221 211 221 185 166 163 180 200 219 243 231 169 168 183 206 236 190 203 209 196 193 204 230 161 182 184 178 185 186 191 197 206 190 208 202
223 173 183 160 182 256 148 163 179 204 187 160 121 179 193 204 234 239 210 43 120 115 101 218 219 202 213 224 225 137 135 129 36 323 301 268 227 219 213 200 184 157 156 175 182 177 178 175 181 183 188 204 207 195
179 169 146 139 146 213 223 195 216 200 116 166 173 205 231 236 297 276 210 190 124 91 80 318 302 4 321 321 284 210 152 154 147 180 226 248 314 264 193 192 180 169 158 156 183 175 174 165 166 175 178 178 183 155
221 155 116 171 181 221 198 53 220 20 16 7 329 299 275 259 255 90 120 118 170 220 217 197 193 164 223 145 300 309 229 213 217 193 194 221 231 279 158 175 176 165 156 154 152 161 168 149 147 111 144 167 182 189
335 68 33 206 254 20 14 2 9 11 11 353 25 248 277 311 305 228 193 202 168 117 108 265 274 212 191 221 196 210 288 253 224 242 238 261 314 305 178 141 144 146 153 156 156 161 153 159 176 171 184 201 210 217
94 161 152 238 272 271 327 61 24 350 342 302 263 295 283 326 279 279 192 118 86 202 232 172 176 271 209 216 223 236 236 264 253 241 230 223 224 211 169 119 123 136 149 157 163 164 172 181 185 192 203 218 224 225
86 157 133 224 295 241 189 168 117 317 269 267 249 257 270 236 253 281 282 200 173 184 202 210 218 218 212 210 217 238 240 241 273 284 244 213 192 173 149 136 142 151 157 164 169 172 181 186 195 197 208 221 232 235